STARLINK-1453 (45670 NORAD) Tracking and Keplerian Element Data

This shows tracking and keplerian element data for the satellite.

Feedback or suggestion? Click here.




ElementValue
Catalog45670
NameSTARLINK-1453
Epoch Orbit182
Epoch Day191.91670139
Epoch Year2020
RAAN352.0253
Inclination53.0006
Eccentricity0.0001447
Argument of Perigee70.9728
Mean Anonmoly135.2172
Mean Motion15.62723609
Decay Rate0.00057464
L11 45670U 20035P 20191.91670139 .00057464 00000-0 62968-3 0 9991
L22 45670 53.0006 352.0253 0001447 70.9728 135.2172 15.62723609 1820

Live tracking and technical data element details for STARLINK-1453 (NORAD 45670). STARLINK-1453 can be tracked NOW for your location showing map with azimuth and elevation plus other details from your city location.

Track the satellite on the map from your city or location and see movement details for azimuth, elevation, latitude, longitude, range, height, and movement on the map or in text.







IsCatalogInMostPopularTable: catalog: 45670, numindb: 6
Update: records affected: 1



GetName: 45670 STARLINK-1453

Hit Count: updated at: Fri, 10 Jul 2020 15:40:52 GMT